timestamp,wind_dir_avg,wind_spd_max_dir,wind_spd_avg,wind_spd_gust,battery_voltage,lat,long
2017-11-08 00:00:00+00:00,38.0,42.0,6.63,7.33,,47.59359,-54.27349
2017-11-08 00:10:00+00:00,43.0,45.0,7.21,8.14,,47.59359,-54.27349
2017-11-08 00:20:00+00:00,42.0,49.0,7.24,7.96,,47.59359,-54.27349
2017-11-08 00:30:00+00:00,42.0,43.0,8.56,9.08,,47.59359,-54.27349
2017-11-08 00:40:00+00:00,36.0,39.0,7.77,8.42,,47.59359,-54.27349
2017-11-08 00:50:00+00:00,34.0,37.0,6.48,7.74,,47.59359,-54.27349
2017-11-08 01:00:00+00:00,41.0,42.0,8.09,9.14,,47.59359,-54.27349
2017-11-08 01:10:00+00:00,44.0,45.0,7.99,8.85,,47.59359,-54.27349
2017-11-08 01:20:00+00:00,66.0,72.0,9.49,11.16,,47.59359,-54.27349
2017-11-08 01:30:00+00:00,62.0,65.0,7.26,8.32,,47.59359,-54.27349
2017-11-08 01:40:00+00:00,60.0,61.0,9.32,10.05,,47.59359,-54.27349
2017-11-08 01:50:00+00:00,69.0,73.0,7.0,8.84,,47.59359,-54.27349
2017-11-08 02:00:00+00:00,68.0,70.0,8.05,8.84,,47.59359,-54.27349
2017-11-08 02:10:00+00:00,75.0,80.0,7.61,8.56,,47.59359,-54.27349
2017-11-08 02:20:00+00:00,77.0,75.0,6.69,7.7,,47.59359,-54.27349
2017-11-08 02:30:00+00:00,79.0,82.0,6.39,6.93,,47.59359,-54.27349
2017-11-08 02:40:00+00:00,76.0,83.0,8.35,9.64,,47.59359,-54.27349
2017-11-08 02:50:00+00:00,80.0,76.0,7.94,8.76,,47.59359,-54.27349
2017-11-08 03:00:00+00:00,82.0,84.0,6.53,9.3,,47.59359,-54.27349
2017-11-08 03:10:00+00:00,94.0,84.0,5.35,7.46,,47.59359,-54.27349
2017-11-08 03:20:00+00:00,94.0,115.0,4.8,6.7,,47.59359,-54.27349
2017-11-08 03:30:00+00:00,87.0,87.0,4.96,6.13,,47.59359,-54.27349
2017-11-08 03:40:00+00:00,81.0,78.0,5.2,6.41,,47.59359,-54.27349
2017-11-08 03:50:00+00:00,85.0,86.0,5.2,6.03,,47.59359,-54.27349
2017-11-08 04:00:00+00:00,91.0,81.0,4.0,5.27,,47.59359,-54.27349
2017-11-08 04:10:00+00:00,95.0,91.0,3.43,4.36,,47.59359,-54.27349
2017-11-08 04:20:00+00:00,100.0,121.0,2.83,3.98,,47.59359,-54.27349
2017-11-08 04:30:00+00:00,119.0,128.0,3.31,4.72,,47.59359,-54.27349
2017-11-08 04:40:00+00:00,114.0,121.0,2.68,3.76,,47.59359,-54.27349
2017-11-08 04:50:00+00:00,114.0,130.0,2.49,3.2,,47.59359,-54.27349
2017-11-08 05:00:00+00:00,98.0,99.0,2.81,3.53,,47.59359,-54.27349
2017-11-08 05:10:00+00:00,123.0,127.0,2.3,3.74,,47.59359,-54.27349
2017-11-08 05:20:00+00:00,116.0,134.0,2.19,3.31,,47.59359,-54.27349
2017-11-08 05:30:00+00:00,152.0,142.0,3.45,4.05,,47.59359,-54.27349
2017-11-08 05:40:00+00:00,135.0,133.0,3.04,3.83,,47.59359,-54.27349
2017-11-08 05:50:00+00:00,101.0,97.0,1.02,1.78,,47.59359,-54.27349
2017-11-08 06:00:00+00:00,99.0,87.0,2.1,3.06,,47.59359,-54.27349
2017-11-08 06:10:00+00:00,103.0,117.0,2.67,3.34,,47.59359,-54.27349
2017-11-08 06:20:00+00:00,96.0,92.0,2.32,2.9,,47.59359,-54.27349
2017-11-08 06:30:00+00:00,50.0,52.0,1.04,1.42,,47.59359,-54.27349
2017-11-08 06:40:00+00:00,326.0,329.0,0.52,1.12,,47.59359,-54.27349
2017-11-08 06:50:00+00:00,357.0,14.0,1.37,2.07,,47.59359,-54.27349
2017-11-08 07:00:00+00:00,24.0,25.0,3.99,4.79,,47.59359,-54.27349
2017-11-08 07:10:00+00:00,67.0,67.0,4.29,5.23,,47.59359,-54.27349
2017-11-08 07:20:00+00:00,67.0,72.0,3.98,4.77,,47.59359,-54.27349
2017-11-08 07:30:00+00:00,81.0,81.0,3.99,4.93,,47.59359,-54.27349
2017-11-08 07:40:00+00:00,69.0,70.0,4.27,6.52,,47.59359,-54.27349
2017-11-08 07:50:00+00:00,91.0,79.0,3.14,4.3,,47.59359,-54.27349
2017-11-08 08:00:00+00:00,79.0,92.0,4.55,5.47,,47.59359,-54.27349
2017-11-08 08:10:00+00:00,78.0,83.0,3.91,4.6,,47.59359,-54.27349
2017-11-08 08:20:00+00:00,83.0,86.0,4.63,5.55,,47.59359,-54.27349
2017-11-08 08:30:00+00:00,95.0,81.0,3.91,5.29,,47.59359,-54.27349
2017-11-08 08:40:00+00:00,79.0,77.0,4.51,5.28,,47.59359,-54.27349
2017-11-08 08:50:00+00:00,87.0,75.0,3.38,4.52,,47.59359,-54.27349
2017-11-08 09:00:00+00:00,77.0,70.0,4.81,6.11,,47.59359,-54.27349
2017-11-08 09:10:00+00:00,80.0,77.0,4.62,5.96,,47.59359,-54.27349
2017-11-08 09:20:00+00:00,84.0,86.0,3.51,4.43,,47.59359,-54.27349
2017-11-08 09:30:00+00:00,103.0,106.0,3.1,4.04,,47.59359,-54.27349
2017-11-08 09:40:00+00:00,96.0,99.0,3.0,3.7,,47.59359,-54.27349
2017-11-08 09:50:00+00:00,85.0,85.0,3.45,4.48,,47.59359,-54.27349
2017-11-08 10:00:00+00:00,93.0,114.0,3.17,4.14,,47.59359,-54.27349
2017-11-08 10:10:00+00:00,97.0,104.0,2.73,3.54,,47.59359,-54.27349
2017-11-08 10:20:00+00:00,86.0,85.0,3.16,4.22,,47.59359,-54.27349
2017-11-08 10:30:00+00:00,98.0,89.0,2.39,3.88,,47.59359,-54.27349
2017-11-08 10:40:00+00:00,77.0,77.0,2.5,3.03,,47.59359,-54.27349
2017-11-08 10:50:00+00:00,93.0,107.0,1.9,2.83,,47.59359,-54.27349
2017-11-08 11:00:00+00:00,97.0,103.0,2.29,3.13,,47.59359,-54.27349
2017-11-08 11:10:00+00:00,80.0,69.0,2.96,3.48,,47.59359,-54.27349
2017-11-08 11:20:00+00:00,112.0,132.0,2.73,3.95,,47.59359,-54.27349
2017-11-08 11:30:00+00:00,115.0,92.0,2.39,3.97,,47.59359,-54.27349
2017-11-08 11:40:00+00:00,83.0,87.0,2.21,2.93,,47.59359,-54.27349
2017-11-08 11:50:00+00:00,106.0,125.0,2.47,3.61,,47.59359,-54.27349
2017-11-08 12:00:00+00:00,92.0,90.0,3.28,4.53,,47.59359,-54.27349
2017-11-08 12:10:00+00:00,119.0,130.0,2.52,4.44,,47.59359,-54.27349
2017-11-08 12:20:00+00:00,108.0,141.0,2.29,3.71,,47.59359,-54.27349
2017-11-08 12:30:00+00:00,97.0,115.0,2.33,3.37,,47.59359,-54.27349
2017-11-08 12:40:00+00:00,91.0,90.0,2.66,3.55,,47.59359,-54.27349
2017-11-08 12:50:00+00:00,85.0,99.0,2.97,4.5,,47.59359,-54.27349
2017-11-08 13:00:00+00:00,89.0,97.0,3.48,5.16,,47.59359,-54.27349
2017-11-08 13:10:00+00:00,70.0,68.0,4.03,4.67,,47.59359,-54.27349
2017-11-08 13:20:00+00:00,69.0,80.0,4.29,5.32,,47.59359,-54.27349
2017-11-08 13:30:00+00:00,59.0,57.0,3.77,4.73,,47.59359,-54.27349
2017-11-08 13:40:00+00:00,79.0,81.0,4.32,5.26,,47.59359,-54.27349
2017-11-08 13:50:00+00:00,73.0,77.0,5.79,7.16,,47.59359,-54.27349
2017-11-08 14:00:00+00:00,72.0,75.0,5.18,5.78,,47.59359,-54.27349
2017-11-08 14:10:00+00:00,75.0,74.0,4.46,5.32,,47.59359,-54.27349
2017-11-08 14:20:00+00:00,81.0,77.0,5.54,6.06,,47.59359,-54.27349
2017-11-08 14:30:00+00:00,81.0,83.0,5.61,6.61,,47.59359,-54.27349
2017-11-08 14:40:00+00:00,84.0,80.0,4.5,5.36,,47.59359,-54.27349
2017-11-08 14:50:00+00:00,79.0,84.0,4.73,5.38,,47.59359,-54.27349
2017-11-08 15:00:00+00:00,87.0,100.0,3.49,4.79,,47.59359,-54.27349
2017-11-08 15:10:00+00:00,89.0,88.0,3.54,4.61,,47.59359,-54.27349
2017-11-08 15:20:00+00:00,85.0,87.0,4.19,5.53,,47.59359,-54.27349
2017-11-08 15:30:00+00:00,86.0,86.0,3.21,4.37,,47.59359,-54.27349
2017-11-08 15:40:00+00:00,96.0,109.0,2.43,3.39,,47.59359,-54.27349
2017-11-08 15:50:00+00:00,82.0,85.0,3.75,4.99,,47.59359,-54.27349
2017-11-08 16:00:00+00:00,88.0,86.0,3.04,4.87,,47.59359,-54.27349
2017-11-08 16:10:00+00:00,80.0,70.0,3.3,4.26,,47.59359,-54.27349
2017-11-08 16:20:00+00:00,85.0,77.0,4.08,5.18,,47.59359,-54.27349
2017-11-08 16:30:00+00:00,86.0,80.0,3.56,5.93,,47.59359,-54.27349
2017-11-08 16:40:00+00:00,106.0,83.0,3.31,4.49,,47.59359,-54.27349
2017-11-08 16:50:00+00:00,84.0,82.0,4.08,5.4,,47.59359,-54.27349
2017-11-08 17:00:00+00:00,78.0,81.0,4.42,5.14,,47.59359,-54.27349
2017-11-08 17:10:00+00:00,92.0,88.0,3.91,4.76,,47.59359,-54.27349
2017-11-08 17:20:00+00:00,83.0,88.0,4.47,5.32,,47.59359,-54.27349
2017-11-08 17:30:00+00:00,75.0,74.0,5.12,5.84,,47.59359,-54.27349
2017-11-08 17:40:00+00:00,59.0,61.0,7.0,7.74,,47.59359,-54.27349
2017-11-08 17:50:00+00:00,66.0,69.0,6.94,7.93,,47.59359,-54.27349
2017-11-08 18:00:00+00:00,56.0,56.0,7.95,9.23,,47.59359,-54.27349
2017-11-08 18:10:00+00:00,57.0,61.0,7.58,8.7,,47.59359,-54.27349
2017-11-08 18:20:00+00:00,61.0,63.0,8.1,9.4,,47.59359,-54.27349
2017-11-08 18:30:00+00:00,65.0,66.0,8.68,9.94,,47.59359,-54.27349
2017-11-08 18:40:00+00:00,55.0,54.0,7.26,8.33,,47.59359,-54.27349
2017-11-08 18:50:00+00:00,69.0,76.0,7.98,9.36,,47.59359,-54.27349
2017-11-08 19:00:00+00:00,74.0,74.0,8.84,10.05,,47.59359,-54.27349
2017-11-08 19:10:00+00:00,73.0,68.0,7.85,8.88,,47.59359,-54.27349
2017-11-08 19:20:00+00:00,70.0,71.0,8.55,10.41,,47.59359,-54.27349
2017-11-08 19:30:00+00:00,63.0,58.0,8.8,10.49,,47.59359,-54.27349
2017-11-08 19:40:00+00:00,71.0,70.0,8.92,9.9,,47.59359,-54.27349
2017-11-08 19:50:00+00:00,67.0,72.0,7.86,9.23,,47.59359,-54.27349
2017-11-08 20:00:00+00:00,71.0,72.0,8.02,10.92,,47.59359,-54.27349
2017-11-08 20:10:00+00:00,78.0,84.0,7.28,8.51,,47.59359,-54.27349
2017-11-08 20:20:00+00:00,67.0,65.0,8.34,9.75,,47.59359,-54.27349
2017-11-08 20:30:00+00:00,69.0,70.0,8.06,9.63,,47.59359,-54.27349
2017-11-08 20:40:00+00:00,75.0,77.0,8.33,9.41,,47.59359,-54.27349
2017-11-08 20:50:00+00:00,77.0,78.0,8.31,11.63,,47.59359,-54.27349
2017-11-08 21:00:00+00:00,85.0,87.0,7.18,8.37,,47.59359,-54.27349
2017-11-08 21:10:00+00:00,85.0,86.0,7.17,8.68,,47.59359,-54.27349
2017-11-08 21:20:00+00:00,82.0,83.0,8.25,8.97,,47.59359,-54.27349
2017-11-08 21:30:00+00:00,75.0,70.0,8.29,9.33,,47.59359,-54.27349
2017-11-08 21:40:00+00:00,81.0,79.0,9.0,10.33,,47.59359,-54.27349
2017-11-08 21:50:00+00:00,74.0,71.0,8.18,9.84,,47.59359,-54.27349
2017-11-08 22:00:00+00:00,82.0,83.0,9.51,11.27,,47.59359,-54.27349
2017-11-08 22:10:00+00:00,85.0,83.0,8.53,9.48,,47.59359,-54.27349
2017-11-08 22:20:00+00:00,83.0,80.0,8.5,10.12,,47.59359,-54.27349
2017-11-08 22:30:00+00:00,88.0,81.0,7.68,10.31,,47.59359,-54.27349
2017-11-08 22:40:00+00:00,83.0,81.0,9.79,11.16,,47.59359,-54.27349
2017-11-08 22:50:00+00:00,80.0,83.0,9.33,10.64,,47.59359,-54.27349
2017-11-08 23:00:00+00:00,79.0,82.0,9.05,10.72,,47.59359,-54.27349
2017-11-08 23:10:00+00:00,83.0,85.0,8.48,10.37,,47.59359,-54.27349
2017-11-08 23:20:00+00:00,80.0,86.0,9.37,10.97,,47.59359,-54.27349
2017-11-08 23:30:00+00:00,85.0,85.0,9.2,10.89,,47.59359,-54.27349
2017-11-08 23:40:00+00:00,83.0,83.0,9.43,10.42,,47.59359,-54.27349
2017-11-08 23:50:00+00:00,89.0,85.0,5.89,8.92,,47.59359,-54.27349
